EW5383 Weather Reports


Display with metric or nautical units.
time (UTC)temp
F
wind
direction
speed
MPH
gust
MPH
rain 1hr
in
rain 24hr
in
rain mn
in
humidity
%
barometer
mb
20260506001605 77 319 0.0 0.0 0.00 0.00 0.00 34 1014.5
20260506000047 77 334 0.0 0.0 0.00 0.00 0.00 38 1014.3
20260505234605 78 345 0.0 0.0 0.00 0.00 0.00 49 1014.2
20260505233040 79 345 0.0 0.0 0.00 0.00 0.00 58 1014.1
20260505231535 80 293 0.0 0.0 0.00 0.00 0.00 61 1014.2
20260505230029 81 109 0.0 0.0 0.00 0.00 0.00 64 1014.1
20260505224530 82 352 0.0 0.0 0.00 0.00 0.00 64 1014.2
20260505223020 82 342 0.0 1.0 0.00 0.00 0.00 64 1014.1
20260505221517 83 354 0.0 0.0 0.00 0.00 0.00 64 1014.1
20260505220011 83 295 0.0 1.0 0.00 0.00 0.00 64 1014.2
20260505214507 84 50 0.0 0.0 0.00 0.00 0.00 63 1014.0
20260505213004 85 315 0.0 1.0 0.00 0.00 0.00 61 1013.9
20260505211634 86 40 0.0 0.0 0.00 0.00 0.00 60 1013.9
20260505210057 87 20 0.0 1.0 0.00 0.00 0.00 60 1013.9
20260505204552 88 86 0.0 1.0 0.00 0.00 0.00 59 1014.0
20260505203105 88 94 0.0 2.0 0.00 0.00 0.00 60 1014.1
20260505201542 88 10 0.0 1.0 0.00 0.00 0.00 59 1014.3
20260505200038 89 324 0.0 1.0 0.00 0.00 0.00 59 1014.3
20260505194532 89 337 0.0 0.0 0.00 0.00 0.00 58 1014.3
20260505193027 88 32 0.0 1.0 0.00 0.00 0.00 60 1014.3
20260505191524 87 53 0.0 1.0 0.00 0.00 0.00 60 1014.4
20260505190019 89 250 0.0 0.0 0.00 0.00 0.00 57 1014.3
20260505184524 86 144 0.0 0.0 0.00 0.00 0.00 50 1014.4
20260505183010 88 60 0.0 0.0 0.00 0.00 0.00 57 1014.6
20260505181505 85 238 0.0 0.0 0.00 0.00 0.00 54 1014.8
20260505180001 85 70 0.0 0.0 0.00 0.00 0.00 53 1015.1
20260505174556 86 122 0.0 1.0 0.00 0.00 0.00 55 1015.2
20260505173052 87 122 0.0 1.0 0.00 0.00 0.00 54 1015.2
20260505171547 84 132 0.0 2.0 0.00 0.00 0.00 58 1015.6
20260505170042 82 67 0.0 1.0 0.00 0.00 0.00 61 1015.6
20260505164539 83 103 0.0 2.0 0.00 0.00 0.00 60 1015.7
20260505163034 83 120 0.0 3.0 0.00 0.00 0.00 60 1015.8
20260505161529 84 183 0.0 2.0 0.00 0.00 0.00 60 1015.7
20260505153015 81 188 0.0 2.0 0.00 0.00 0.00 64 1016.1
20260505151510 81 116 0.0 1.0 0.00 0.00 0.00 64 1016.2
20260505124526 74 115 0.0 1.0 0.00 0.00 0.00 5 1015.4
20260505123021 73 69 0.0 1.0 0.00 0.00 0.00 1 1015.5
20260505121517 73 81 0.0 1.0 0.00 0.00 0.00 1 1015.4
20260505120015 72 110 0.0 1.0 0.00 0.00 0.00 1 1015.3
20260505114507 70 129 0.0 2.0 0.00 0.00 0.00 1 1015.1
20260505113003 0 0.0 0.0 0.00 0.00 0.00 1014.8
20260505111601 0 0.0 0.0 0.00 0.00 0.00 1014.6
20260505101545 0 0.0 0.0 0.00 0.00 0.00 1014.2
20260505100037 0 0.0 0.0 0.00 0.00 0.00 1014.2
20260505094532 0 0.0 0.0 0.00 0.00 0.00 1014.1
20260505093034 0 0.0 0.0 0.00 0.00 0.00 1013.9
20260505091523 0 0.0 0.0 0.00 0.00 0.00 1013.9
20260505090021 0 0.0 0.0 0.00 0.00 0.00 1013.6
20260505084526 0 0.0 0.0 0.00 0.00 0.00 1013.8
20260505083011 0 0.0 0.0 0.00 0.00 0.00 1013.7
20260505081507 0 0.0 0.0 0.00 0.00 0.00 1013.7
20260505080006 0 0.0 0.0 0.00 0.00 0.00 1013.7
20260505074557 0 0.0 0.0 0.00 0.00 0.00 1014.1
20260505073056 0 0.0 0.0 0.00 0.00 0.00 1014.1
20260505071550 0 0.0 0.0 0.00 0.00 0.00 1014.1
20260505070100 0 0.0 0.0 0.00 0.00 0.00 1014.0
20260505064543 0 0.0 0.0 0.00 0.00 0.00 1014.1
20260505063037 0 0.0 0.0 0.00 0.00 0.00 1014.3
20260505061552 0 0.0 0.0 0.00 0.00 0.00 1014.9
20260505060029 0 0.0 0.0 0.00 0.00 0.00 1015.0
20260505054539 0 0.0 0.0 0.00 0.00 0.00 1014.9
20260505053024 0 0.0 0.0 0.00 0.00 0.00 1015.0
20260505051516 0 0.0 0.0 0.00 0.00 0.00 1015.1
20260505041605 0 0.0 0.0 0.00 0.00 0.00 1015.4
20260505034548 0 0.0 0.0 0.00 0.00 0.00 1015.5
20260505033044 72 167 0.0 2.0 0.00 0.00 0.00 38 1015.5
20260505031549 73 103 0.0 1.0 0.00 0.00 0.00 47 1015.5
20260505030036 73 75 0.0 2.0 0.00 0.00 0.00 52 1015.7
20260505024531 74 117 0.0 2.0 0.00 0.00 0.00 56 1015.5
20260505023026 74 105 0.0 2.0 0.00 0.00 0.00 58 1015.3
20260505021522 74 162 0.0 2.0 0.00 0.00 0.00 61 1015.2
20260505020020 75 106 0.0 1.0 0.00 0.00 0.00 62 1015.2
20260505014515 75 134 0.0 3.0 0.00 0.00 0.00 63 1015.0
20260505013008 76 64 0.0 2.0 0.00 0.00 0.00 64 1014.9
20260505011504 76 106 0.0 2.0 0.00 0.00 0.00 64 1014.7
20260505010108 77 192 0.0 1.0 0.00 0.00 0.00 65 1014.4
20260505004555 78 99 0.0 3.0 0.00 0.00 0.00 65 1014.2
20260505003050 78 60 0.0 2.0 0.00 0.00 0.00 64 1014.0